This demonstration page uses our WeatherBlox Daily Observations layout. Learn more.

Left ArrowRight Arrow

39.92423, -83.80882

Hourly Observations for May 24, 2020

Temp ( °F °C ) Dew Point ( °F °C ) Humidity (%) Winds ( mph kmh ) Pressure ( in mb ) Visibility ( mi km ) Precip ( " mm )
12:56 am 00:56 Clear 65 18.3 65 18.3 100 100 Calm 30.01 1016 10 16.0934 0 0
1:06 am 01:06 Clear with Mist and Fog 64 18 64 18 100 100 SE 3 6 30 1016 1.25 2.011675 0 0
1:08 am 01:08 Mostly Cloudy with Mist and Fog 64 18 64 18 100 100 SE 5 7 30 1016 0.75 1.207005 0 0
1:15 am 01:15 Mostly Cloudy with Fog 63 17 63 17 100 100 SE 6 9 29.99 1016 0.5 0.80467 0 0
1:17 am 01:17 Clear with Mist and Fog 64 18 64 18 100 100 SE 6 9 29.99 1016 1 1.60934 0 0
1:19 am 01:19 Clear with Mist and Fog 64 18 64 18 100 100 SE 7 11 29.99 1016 3 4.82802 0 0
1:56 am 01:56 Clear 64 17.8 64 17.8 100 100 SE 8 13 29.98 1015 10 16.0934 0.01 0.254
2:56 am 02:56 Clear 63 17.2 63 17.2 100 100 SE 6 9 29.98 1015 10 16.0934 0 0
3:56 am 03:56 Clear 65 18.3 65 18.3 100 100 S 3 6 29.98 1015 10 16.0934 0.04 1.016
4:56 am 04:56 Clear 65 18.3 65 18.3 100 100 Calm 29.98 1015 10 16.0934 0 0
5:56 am 05:56 Clear 63 17.2 63 17.2 100 100 Calm 30 1016 10 16.0934 0 0
6:56 am 06:56 Sunny 61 16.1 61 16.1 100 100 ESE 5 7 30.02 1017 9 14.48406 0 0
7:56 am 07:56 Sunny 66 18.9 66 18.9 100 100 S 3 6 30.04 1017 10 16.0934 0 0
8:56 am 08:56 Sunny 70 21.1 69 20.6 97 97 SW 9 15 30.05 1018 10 16.0934 0 0
9:56 am 09:56 Sunny 74 23.3 71 21.7 91 91 WSW 6 9 30.06 1018 10 16.0934 0 0
10:56 am 10:56 Sunny 77 25 71 21.7 82 82 WSW 5 7 30.05 1018 10 16.0934 0 0
11:56 am 11:56 Sunny 79 26.1 71 21.7 77 77 WSW 6 9 30.05 1018 10 16.0934 0 0
12:56 pm 12:56 Mostly Cloudy 81 27.2 70 21.1 69 69 WSW 6 9 30.04 1017 10 16.0934 0 0
1:56 pm 13:56 Partly Cloudy 82 27.8 67 19.4 60 60 WSW 6 9 30.04 1017 10 16.0934 0 0
2:56 pm 14:56 Mostly Sunny 83 28.3 66 18.9 57 57 SW 3 6 30.03 1017 10 16.0934 0 0
3:56 pm 15:56 Sunny 84 28.9 67 19.4 57 57 W 5 7 30 1016 10 16.0934 0 0
4:56 pm 16:56 Sunny 85 29.4 67 19.4 55 55 Calm 29.98 1015 10 16.0934 0 0
5:56 pm 17:56 Sunny 83 28.3 68 20 61 61 SE 3 6 29.98 1015 10 16.0934 0 0
6:56 pm 18:56 Sunny 81 27.2 70 21.1 69 69 SE 5 7 29.98 1015 10 16.0934 0 0
7:56 pm 19:56 Sunny 79 26.1 72 22.2 79 79 SE 5 7 29.98 1015 10 16.0934 0 0
8:56 pm 20:56 Mostly Clear 76 24.4 67 19.4 74 74 SW 13 20 30 1016 10 16.0934 0 0
9:56 pm 21:56 Partly Cloudy 73 22.8 66 18.9 79 79 SW 7 11 30.01 1016 9 14.48406 0 0
10:56 pm 22:56 Partly Cloudy 71 21.7 67 19.4 87 87 WSW 3 6 30.02 1017 10 16.0934 0 0
11:56 pm 23:56 Clear 70 21.1 66 18.9 87 87 SW 3 6 30.02 1017 10 16.0934 0 0

Powered by AerisWeather